Ludington, MI

2:36 AM EST on November 20, 2019 (GMT -0500)
Mason County

Weather History for KLDM - October, 2019

Change the Weather History Date:

Sunday, October 20, 2019

  Actual Average Record
Temperature  
Mean Temperature 48 °F -  
Max Temperature 56 °F 56 °F 77 °F (1971)
Min Temperature 40 °F 38 °F 26 °F (1952)
Degree Days  
Heating Degree Days 17    
Moisture  
Dew Point 46 °F    
Average Humidity 88    
Maximum Humidity 97    
Minimum Humidity 68    
Precipitation  
Precipitation 0.00 in - - ()
Sea Level Pressure  
Sea Level Pressure 29.87 in    
Wind  
Wind Speed 3 mph (NW)    
Max Wind Speed 7 mph    
Max Gust Speed 10 mph    
Visibility 8 miles    
Events Fog , Rain    
Averages and records for this station are not official NWS values.
T = Trace of Precipitation, MM = Missing Value Source: NWS Daily Summary

Daily Weather History Graph

Daily Weather History Graph

Search for Another Location

Airport or City:

Astronomy

Oct. 20, 2019 Rise Set
Actual Time 8:06 AM EDT 6:53 PM EDT
Civil Twilight 7:36 AM EDT 7:23 PM EDT
Nautical Twilight 7:03 AM EDT 7:56 PM EDT
Astronomical Twilight 6:29 AM EDT 8:30 PM EDT
Moon 11:54 PM EDT 2:42 PM EDT
Length of Visible Light 11h 46m
Length of Day
10h 47m
Waning Gibbous, 59% of the Moon is Illuminated
Oct 20
Waning Gibbous
Oct 21
Last Quarter
Oct 27
New
Nov 4
First Quarter
Nov 12
Full

Hourly Weather History & Observations

Time (EDT) Temp. Dew Point Humidity Pressure Visibility Wind Dir Wind Speed Gust Speed Precip Events Conditions
12:35 AM 53.6 °F 43.3 °F 68% 29.74 in 10.0 mi ESE 3.5 mph - N/A   Mostly Cloudy
12:36 AM 53.6 °F 43.3 °F 68% 29.74 in 10.0 mi ESE 3.5 mph - N/A   Mostly Cloudy
12:55 AM 53.6 °F 43.3 °F 68% 29.74 in 10.0 mi SE 4.6 mph - N/A   Overcast
12:56 AM 53.6 °F 43.5 °F 69% 29.74 in 10.0 mi SE 4.6 mph - N/A   Overcast
1:15 AM 53.6 °F 43.7 °F 69% 29.73 in 10.0 mi Calm Calm - N/A   Overcast
1:38 AM 53.8 °F 43.9 °F 69% 29.74 in 10.0 mi SSE 3.5 mph - N/A Rain Light Rain
1:56 AM 53.4 °F 44.4 °F 72% 29.74 in 10.0 mi Calm Calm - N/A   Overcast
2:15 AM 50.4 °F 46.9 °F 88% 29.74 in 10.0 mi North 3.5 mph - N/A   Light Drizzle
2:16 AM 50.2 °F 46.9 °F 89% 29.74 in 10.0 mi Calm Calm - N/A   Light Drizzle
2:36 AM 50.0 °F 47.5 °F 91% 29.75 in 10.0 mi Calm Calm - N/A Rain Light Rain
2:59 AM 49.8 °F 48.2 °F 94% 29.75 in 10.0 mi Calm Calm - N/A Rain Light Rain
3:17 AM 49.3 °F 48.2 °F 96% 29.75 in 10.0 mi Calm Calm - N/A   Overcast
3:35 AM 49.1 °F 47.8 °F 95% 29.75 in 10.0 mi Calm Calm - N/A   Overcast
3:55 AM 49.3 °F 48.2 °F 96% 29.75 in 10.0 mi Calm Calm - N/A   Overcast
3:56 AM 49.3 °F 48.2 °F 96% 29.75 in 10.0 mi Calm Calm - N/A   Overcast
4:15 AM 49.5 °F 48.4 °F 96% 29.76 in 10.0 mi Calm Calm - N/A   Overcast
4:20 AM 49.6 °F 48.4 °F 95% 29.76 in 10.0 mi Calm Calm - N/A   Overcast
4:38 AM 49.1 °F 48.0 °F 96% 29.76 in 10.0 mi North 3.5 mph - N/A   Overcast
4:56 AM 49.1 °F 48.2 °F 97% 29.76 in 10.0 mi Calm Calm - N/A   Overcast
5:15 AM 49.5 °F 48.2 °F 95% 29.77 in 10.0 mi Calm Calm - N/A   Overcast
5:35 AM 49.1 °F 48.2 °F 97% 29.77 in 10.0 mi Calm Calm - N/A   Overcast
6:17 AM 50.2 °F 47.5 °F 90% 29.79 in 10.0 mi Calm Calm - N/A   Overcast
6:35 AM 51.1 °F 48.4 °F 90% 29.80 in 10.0 mi NNW 4.6 mph - N/A   Overcast
6:36 AM 50.9 °F 48.4 °F 91% 29.80 in 10.0 mi NNW 4.6 mph - N/A   Overcast
6:55 AM 51.6 °F 49.1 °F 91% 29.80 in 10.0 mi NNW 5.8 mph - N/A   Overcast
7:20 AM 51.4 °F 49.5 °F 93% 29.82 in 10.0 mi NNW 5.8 mph - N/A   Overcast
7:38 AM 51.4 °F 50.0 °F 95% 29.83 in 7.0 mi NW 5.8 mph - N/A   Overcast
7:56 AM 51.4 °F 50.0 °F 95% 29.84 in 7.0 mi NW 5.8 mph - N/A   Overcast
8:15 AM 51.3 °F 49.3 °F 93% 29.84 in 10.0 mi NW 4.6 mph - N/A   Overcast
8:35 AM 50.9 °F 49.1 °F 94% 29.83 in 10.0 mi North 6.9 mph - N/A   Overcast
8:36 AM 50.9 °F 49.1 °F 94% 29.84 in 10.0 mi North 6.9 mph - N/A   Overcast
8:59 AM 50.5 °F 48.7 °F 94% 29.84 in 10.0 mi North 4.6 mph - N/A   Overcast
9:17 AM 50.5 °F 48.7 °F 94% 29.85 in 10.0 mi Calm Calm - N/A   Overcast
9:35 AM 50.2 °F 48.6 °F 94% 29.86 in 10.0 mi NNW 4.6 mph 10.4 mph N/A   Overcast
9:55 AM 50.4 °F 48.4 °F 93% 29.87 in 10.0 mi Calm Calm - N/A   Overcast
9:56 AM 50.4 °F 48.4 °F 93% 29.87 in 10.0 mi NW 3.5 mph - N/A   Overcast
10:15 AM 50.5 °F 48.4 °F 92% 29.88 in 10.0 mi West 4.6 mph - N/A   Overcast
10:20 AM 50.4 °F 48.2 °F 92% 29.89 in 10.0 mi WNW 3.5 mph - N/A   Overcast
10:38 AM 50.0 °F 47.7 °F 92% 29.90 in 10.0 mi NNW 3.5 mph - N/A   Overcast
11:15 AM 50.2 °F 46.9 °F 89% 29.92 in 10.0 mi NW 4.6 mph - N/A   Overcast
11:35 AM 50.4 °F 46.9 °F 88% 29.92 in 10.0 mi North 3.5 mph - N/A   Overcast
11:36 AM 50.4 °F 47.1 °F 89% 29.92 in 10.0 mi North 3.5 mph - N/A   Overcast
11:59 AM 50.9 °F 47.3 °F 87% 29.92 in 10.0 mi WNW 4.6 mph - N/A   Overcast
12:17 PM 51.6 °F 47.3 °F 85% 29.92 in 10.0 mi NW 4.6 mph - N/A   Overcast
12:35 PM 51.1 °F 46.8 °F 85% 29.92 in 10.0 mi North 4.6 mph - N/A   Overcast
12:55 PM 53.6 °F 47.5 °F 80% 29.92 in 10.0 mi NW 4.6 mph - N/A   Mostly Cloudy
1:15 PM 54.5 °F 47.7 °F 78% 29.92 in 10.0 mi Calm Calm - N/A   Scattered Clouds
1:20 PM 54.5 °F 47.7 °F 78% 29.92 in 10.0 mi Calm Calm - N/A   Scattered Clouds
1:38 PM 55.6 °F 47.7 °F 75% 29.92 in 10.0 mi West 4.6 mph - N/A   Clear
1:56 PM 56.1 °F 48.2 °F 75% 29.92 in 10.0 mi West 4.6 mph - N/A   Clear
2:15 PM 55.8 °F 48.4 °F 76% 29.91 in 10.0 mi West 4.6 mph - N/A   Clear
2:35 PM 55.6 °F 48.7 °F 78% 29.91 in 10.0 mi West 5.8 mph - N/A   Clear
2:59 PM 55.4 °F 49.1 °F 79% 29.91 in 10.0 mi West 5.8 mph - N/A   Clear
3:17 PM 54.0 °F 48.0 °F 80% 29.92 in 10.0 mi West 6.9 mph - N/A   Clear
3:35 PM 53.6 °F 48.0 °F 81% 29.92 in 10.0 mi WNW 6.9 mph - N/A   Clear
3:36 PM 53.6 °F 48.0 °F 81% 29.92 in 10.0 mi WNW 5.8 mph - N/A   Clear
3:55 PM 52.2 °F 47.5 °F 84% 29.92 in 10.0 mi WNW 4.6 mph - N/A   Clear
3:56 PM 52.0 °F 47.3 °F 84% 29.92 in 10.0 mi WNW 3.5 mph - N/A   Clear
4:15 PM 52.7 °F 47.5 °F 82% 29.92 in 10.0 mi West 5.8 mph - N/A   Clear
4:20 PM 52.2 °F 47.3 °F 83% 29.93 in 10.0 mi West 4.6 mph - N/A   Clear
4:38 PM 53.1 °F 47.7 °F 82% 29.93 in 10.0 mi WNW 4.6 mph - N/A   Clear
4:56 PM 52.9 °F 47.5 °F 82% 29.93 in 10.0 mi WNW 4.6 mph - N/A   Clear
5:15 PM 52.7 °F 47.5 °F 82% 29.93 in 10.0 mi West 4.6 mph - N/A   Clear
5:16 PM 52.5 °F 47.3 °F 82% 29.93 in 10.0 mi West 3.5 mph - N/A   Clear
5:35 PM 52.0 °F 47.5 °F 85% 29.94 in 10.0 mi NW 3.5 mph - N/A   Clear
5:36 PM 51.8 °F 47.3 °F 85% 29.94 in 10.0 mi WNW 3.5 mph - N/A   Clear
5:59 PM 50.4 °F 47.3 °F 89% 29.94 in 10.0 mi NW 3.5 mph - N/A   Clear
6:17 PM 50.4 °F 47.1 °F 89% 29.94 in 10.0 mi Calm Calm - N/A   Clear
6:35 PM 49.1 °F 46.8 °F 92% 29.94 in 10.0 mi Calm Calm - N/A   Clear
6:55 PM 46.6 °F 45.3 °F 95% 29.94 in 4.0 mi Calm Calm - N/A   Clear
6:56 PM 46.4 °F 45.3 °F 96% 29.94 in 4.0 mi Calm Calm - N/A   Clear
7:15 PM 46.2 °F 45.0 °F 95% 29.95 in 4.0 mi Calm Calm - N/A   Clear
7:20 PM 45.0 °F 43.9 °F 96% 29.95 in 4.0 mi Calm Calm - N/A   Clear
7:38 PM 43.9 °F 42.8 °F 96% 29.95 in 0.2 mi Calm Calm - N/A Fog Fog
7:56 PM 41.4 °F 40.1 °F 95% 29.95 in 0.5 mi Calm Calm - N/A Fog Fog
8:15 PM 42.3 °F 41.0 °F 95% 29.95 in 0.2 mi Calm Calm - N/A Fog Fog
8:35 PM 43.0 °F 41.9 °F 96% 29.95 in 0.2 mi Calm Calm - N/A Fog Fog
8:59 PM 42.8 °F 41.5 °F 95% 29.95 in 0.2 mi Calm Calm - N/A Fog Fog
9:17 PM 41.7 °F 40.6 °F 96% 29.96 in 0.2 mi Calm Calm - N/A Fog Fog
9:35 PM 41.9 °F 40.8 °F 96% 29.96 in 0.5 mi Calm Calm - N/A Fog Fog
9:55 PM 41.7 °F 40.5 °F 95% 29.96 in 0.8 mi Calm Calm - N/A   Mostly Cloudy
10:15 PM 41.5 °F 40.5 °F 96% 29.96 in 0.8 mi Calm Calm - N/A   Mostly Cloudy
10:38 PM 40.1 °F 39.2 °F 97% 29.96 in 4.0 mi Calm Calm - N/A   Clear
10:56 PM 41.0 °F 39.7 °F 95% 29.96 in 4.0 mi Calm Calm - N/A   Clear
11:15 PM 40.5 °F 39.4 °F 96% 29.96 in 4.0 mi Calm Calm - N/A   Clear
11:35 PM 41.9 °F 40.6 °F 95% 29.95 in 4.0 mi Calm Calm - N/A   Clear
11:59 PM 41.9 °F 40.8 °F 96% 29.94 in 3.0 mi Calm Calm - N/A   Clear